• en Suisse
  • Liste des pays
  • À 7 jours
  • Température de l'eau
  • Carte satellitaire
  • Carte météo
  • Widgets météo
  • user-avatar
    Se connecter

    Météo par heure à Serhiivka

    Ce jour, 25 Septembre, Mardi

    Heure Température Précipitation Vent Pression Humidité
    00:00 +11°C° 0.8 mm 6 m/s 755 mmHg 76%
    01:00 +11°C° 0.8 mm 6 m/s 756 mmHg 75%
    02:00 +10°C° 0 mm 5 m/s 756 mmHg 75%
    03:00 +10°C° 0.1 mm 5 m/s 756 mmHg 74%
    04:00 +10°C° 0.1 mm 5 m/s 756 mmHg 73%
    05:00 +10°C° 0.1 mm 5 m/s 757 mmHg 72%
    06:00 +10°C° 0 mm 6 m/s 757 mmHg 70%
    07:00 +10°C° 0 mm 6 m/s 757 mmHg 68%
    08:00 +10°C° 0 mm 6 m/s 758 mmHg 66%
    09:00 +11°C° 0 mm 6 m/s 758 mmHg 63%
    10:00 +11°C° 0 mm 6 m/s 758 mmHg 60%
    11:00 +13°C° 0 mm 6 m/s 759 mmHg 57%
    12:00 +13°C° 0.2 mm 6 m/s 759 mmHg 56%
    13:00 +14°C° 0.2 mm 7 m/s 759 mmHg 54%
    14:00 +15°C° 0 mm 7 m/s 759 mmHg 51%
    15:00 +14°C° 0.3 mm 7 m/s 759 mmHg 54%
    16:00 +14°C° 0.3 mm 7 m/s 760 mmHg 56%
    17:00 +12°C° 0.3 mm 7 m/s 760 mmHg 59%
    18:00 +11°C° 0 mm 7 m/s 761 mmHg 61%
    19:00 +10°C° 0 mm 6 m/s 762 mmHg 64%
    20:00 +9°C° 0 mm 6 m/s 762 mmHg 66%
    21:00 +9°C° 0 mm 5 m/s 763 mmHg 68%
    22:00 +8°C° 0 mm 5 m/s 764 mmHg 69%
    23:00 +8°C° 0 mm 5 m/s 764 mmHg 70%

    Demain, 26 Septembre, Mercredi

    Heure Température Précipitation Vent Pression Humidité
    00:00 +7°C° 0 mm 4 m/s 764 mmHg 71%
    01:00 +7°C° 0 mm 4 m/s 765 mmHg 73%
    02:00 +7°C° 0 mm 4 m/s 765 mmHg 74%
    03:00 +6°C° 0 mm 4 m/s 766 mmHg 75%
    04:00 +6°C° 0 mm 4 m/s 766 mmHg 76%
    05:00 +6°C° 0 mm 4 m/s 766 mmHg 77%
    06:00 +6°C° 0 mm 4 m/s 767 mmHg 73%
    07:00 +7°C° 0 mm 5 m/s 767 mmHg 69%
    08:00 +8°C° 0 mm 5 m/s 767 mmHg 66%
    09:00 +9°C° 0 mm 5 m/s 768 mmHg 59%
    10:00 +12°C° 0 mm 5 m/s 768 mmHg 52%
    11:00 +13°C° 0 mm 6 m/s 768 mmHg 45%
    12:00 +13°C° 0 mm 6 m/s 768 mmHg 42%
    13:00 +14°C° 0 mm 6 m/s 768 mmHg 39%
    14:00 +14°C° 0 mm 6 m/s 768 mmHg 36%
    15:00 +13°C° 0 mm 5 m/s 768 mmHg 36%
    16:00 +13°C° 0 mm 5 m/s 768 mmHg 37%
    17:00 +12°C° 0 mm 4 m/s 768 mmHg 38%
    18:00 +12°C° 0 mm 4 m/s 769 mmHg 41%
    19:00 +11°C° 0 mm 3 m/s 769 mmHg 44%
    20:00 +10°C° 0 mm 2 m/s 769 mmHg 47%
    21:00 +9°C° 0 mm 2 m/s 769 mmHg 50%
    22:00 +9°C° 0 mm 2 m/s 769 mmHg 52%
    23:00 +8°C° 0 mm 2 m/s 770 mmHg 55%

    Après-demain, 27 Septembre, Jeudi

    Heure Température Précipitation Vent Pression Humidité
    00:00 +8°C° 0 mm 2 m/s 769 mmHg 56%
    01:00 +7°C° 0 mm 2 m/s 769 mmHg 57%
    02:00 +7°C° 0 mm 2 m/s 769 mmHg 57%
    03:00 +7°C° 0 mm 2 m/s 769 mmHg 58%
    04:00 +6°C° 0 mm 2 m/s 769 mmHg 58%
    05:00 +6°C° 0 mm 2 m/s 768 mmHg 58%
    06:00 +7°C° 0 mm 2 m/s 768 mmHg 55%
    07:00 +9°C° 0 mm 3 m/s 768 mmHg 51%
    08:00 +10°C° 0 mm 4 m/s 768 mmHg 47%
    09:00 +11°C° 0 mm 4 m/s 768 mmHg 43%
    10:00 +13°C° 0 mm 5 m/s 767 mmHg 39%
    11:00 +14°C° 0 mm 5 m/s 767 mmHg 35%
    12:00 +15°C° 0 mm 6 m/s 766 mmHg 33%
    13:00 +16°C° 0 mm 6 m/s 766 mmHg 32%
    14:00 +17°C° 0 mm 6 m/s 765 mmHg 31%
    15:00 +16°C° 0 mm 6 m/s 765 mmHg 33%
    16:00 +15°C° 0 mm 5 m/s 764 mmHg 35%
    17:00 +15°C° 0 mm 5 m/s 764 mmHg 37%
    18:00 +14°C° 0 mm 4 m/s 764 mmHg 39%
    19:00 +13°C° 0 mm 3 m/s 764 mmHg 41%
    20:00 +12°C° 0 mm 3 m/s 764 mmHg 43%
    21:00 +12°C° 0 mm 3 m/s 764 mmHg 44%
    22:00 +11°C° 0 mm 3 m/s 764 mmHg 46%
    23:00 +11°C° 0 mm 3 m/s 764 mmHg 47%

    28 Septembre, Vendredi

    Heure Température Précipitation Vent Pression Humidité
    00:00 +12°C° 0 mm 2 m/s 764 mmHg 48%
    01:00 +12°C° 0 mm 2 m/s 764 mmHg 49%
    02:00 +12°C° 0 mm 2 m/s 763 mmHg 51%
    03:00 +12°C° 0 mm 2 m/s 763 mmHg 53%
    04:00 +12°C° 0 mm 2 m/s 763 mmHg 55%
    05:00 +10°C° 0 mm 2 m/s 762 mmHg 57%
    06:00 +13°C° 0 mm 2 m/s 762 mmHg 56%
    07:00 +14°C° 0 mm 2 m/s 762 mmHg 54%
    08:00 +15°C° 0 mm 2 m/s 762 mmHg 53%
    09:00 +16°C° 0 mm 2 m/s 762 mmHg 51%
    10:00 +18°C° 0 mm 2 m/s 762 mmHg 49%
    11:00 +20°C° 0 mm 3 m/s 761 mmHg 48%
    12:00 +21°C° 0 mm 3 m/s 761 mmHg 47%
    13:00 +21°C° 0 mm 3 m/s 760 mmHg 45%
    14:00 +22°C° 0 mm 3 m/s 760 mmHg 44%
    15:00 +22°C° 0 mm 3 m/s 759 mmHg 46%
    16:00 +21°C° 0 mm 3 m/s 759 mmHg 48%
    17:00 +21°C° 0 mm 3 m/s 759 mmHg 50%
    18:00 +20°C° 0 mm 3 m/s 759 mmHg 53%
    19:00 +18°C° 0 mm 3 m/s 759 mmHg 56%
    20:00 +17°C° 0 mm 3 m/s 759 mmHg 59%
    21:00 +17°C° 0 mm 3 m/s 759 mmHg 61%
    22:00 +16°C° 0 mm 3 m/s 759 mmHg 63%
    23:00 +16°C° 0 mm 3 m/s 759 mmHg 65%

    29 Septembre, Samedi

    Heure Température Précipitation Vent Pression Humidité
    00:00 +15°C° 0 mm 2 m/s 758 mmHg 67%
    01:00 +15°C° 0 mm 2 m/s 758 mmHg 69%
    02:00 +15°C° 0 mm 2 m/s 758 mmHg 71%
    03:00 +14°C° 0 mm 2 m/s 758 mmHg 72%
    04:00 +14°C° 0 mm 1 m/s 758 mmHg 73%
    05:00 +14°C° 0 mm 1 m/s 758 mmHg 75%
    06:00 +15°C° 0 mm 1 m/s 758 mmHg 70%
    07:00 +16°C° 0 mm 1 m/s 758 mmHg 65%
    08:00 +18°C° 0 mm 1 m/s 758 mmHg 61%
    09:00 +20°C° 0 mm 1 m/s 758 mmHg 56%
    10:00 +21°C° 0 mm 1 m/s 759 mmHg 51%
    11:00 +21°C° 0 mm 0 m/s 759 mmHg 46%
    12:00 +24°C° 0 mm 1 m/s 758 mmHg 45%
    13:00 +24°C° 0 mm 1 m/s 758 mmHg 43%
    14:00 +24°C° 0 mm 1 m/s 758 mmHg 42%
    15:00 +24°C° 0 mm 1 m/s 758 mmHg 43%
    16:00 +24°C° 0 mm 1 m/s 758 mmHg 45%
    17:00 +23°C° 0 mm 2 m/s 758 mmHg 47%
    18:00 +23°C° 0 mm 2 m/s 759 mmHg 49%
    19:00 +21°C° 0 mm 3 m/s 759 mmHg 51%
    20:00 +20°C° 0 mm 3 m/s 759 mmHg 53%
    21:00 +20°C° 0 mm 3 m/s 760 mmHg 56%
    22:00 +19°C° 0 mm 3 m/s 760 mmHg 58%
    23:00 +18°C° 0 mm 3 m/s 760 mmHg 61%

    30 Septembre, Dimanche

    Heure Température Précipitation Vent Pression Humidité
    00:00 +18°C° 0 mm 4 m/s 760 mmHg 63%
    01:00 +18°C° 0 mm 4 m/s 760 mmHg 65%
    02:00 +17°C° 0 mm 4 m/s 760 mmHg 67%
    03:00 +17°C° 0 mm 4 m/s 760 mmHg 69%
    04:00 +15°C° 0 mm 5 m/s 761 mmHg 71%
    05:00 +15°C° 0 mm 5 m/s 761 mmHg 73%
    06:00 +15°C° 0 mm 5 m/s 761 mmHg 73%
    07:00 +16°C° 0 mm 5 m/s 761 mmHg 72%
    08:00 +16°C° 0 mm 5 m/s 762 mmHg 72%
    09:00 +17°C° 0 mm 5 m/s 762 mmHg 66%
    10:00 +20°C° 0 mm 5 m/s 762 mmHg 60%
    11:00 +22°C° 0 mm 5 m/s 762 mmHg 54%
    12:00 +22°C° 0 mm 6 m/s 761 mmHg 52%
    13:00 +23°C° 0 mm 6 m/s 761 mmHg 49%
    14:00 +23°C° 0 mm 6 m/s 761 mmHg 47%
    15:00 +22°C° 0 mm 6 m/s 761 mmHg 49%
    16:00 +22°C° 0 mm 5 m/s 761 mmHg 50%
    17:00 +21°C° 0 mm 5 m/s 761 mmHg 52%
    18:00 +20°C° 0 mm 5 m/s 761 mmHg 54%
    19:00 +19°C° 0 mm 5 m/s 761 mmHg 56%
    20:00 +17°C° 0 mm 5 m/s 761 mmHg 57%
    21:00 +17°C° 0 mm 5 m/s 761 mmHg 57%
    22:00 +16°C° 0 mm 5 m/s 761 mmHg 57%
    23:00 +16°C° 0 mm 5 m/s 761 mmHg 57%
    Voir plus